Showing default

XINGYUN-2 02, 45603

Orbit data source: Space-Track

XINGYUN-2 02, 45603 is a payload satellite owned by Xingyun (CN) in SSO that was launched on Tue, 12 May 2020 UTC via a KUAIZHOU-1A launch vehicle from the Jiuquan Satellite Launch Center, China (JSC). Payload-class satellites include a variety of spacecraft equipped with specific instruments for various scientific and technological missions. These include communications satellites like Starlink; space stations such as the ISS; scientific satellites like the Hubble; Earth observation satellites from companies like Planet Labs, Umbra, and HawkEye 360; GPS; miniature CubeSats for education and research; and military/defense satellites.

Loading next visibility...
Identifier
45603, 2020-028B
Orbit
SSO
Last TLE update
4 hours ago
Origin
Manufacturer
Sanjiang
Mission
Operational Commercial Communications
Bus & Motor
XINGYUN, Unknown motor
Mass
93 kg wet, ~85 kg dry
Launch date (UTC)
2020-05-12 (5 years ago)
Launch vehicle
KUAIZHOU-1A
Launch site
Jiuquan Satellite Launch Center, China (JSC)
Object type
Payload
Rocket body
Debris
Shape & HBR
Box, Unknown HBR
Radar Cross Section
0.569 m², Medium (>0.1 m² and < 1m²)

Expand to show TLE details & history

TLE from 4 hours ago
0 XINGYUN-2 02
1 45603U 20028B   25175.53211729  .00001384  00000-0  90303-4 0  9995
2 45603  97.5081 183.3335 0013029  64.8743 295.3836 15.09423422280843
Epoch: 2025-06-24T12:46Z
TLE epoch observation values (Epoch: 2025-06-24T12:46:14.933Z)
Latitude
-0.00008°
Longitude
78.8446°
Altitude
537.18 km
Speed
7.596 km/s
True Right ascension
12h 13m 20s
True Declination
0° 00' 00"
Sunlit
Object was in daylight at epoch
Visualization orbit readout
Latitude
-78.55204°
Longitude
-141.31493°
Altitude
574.47 km
Speed
7.568 km/s
Apparent Right ascension
17h 17m 07s
Apparent Declination
-63° 47' 30"
Sunlit
Object is in full shadow
Visualization observer readout
Local Sidereal Time
04:18:19
Azimuth
195.143° SSW
Elevation
-64.601°
Doppler factor
1
Orbital elements
Apogee altitude
543.952 km
Perigee altitude
525.938 km
Semi-major axis
6,913.082 km
Eccentricity
0.0013
Inclination
97.5081°
RAAN
183.3335°
Arg. of periapsis
64.8743°
True anomaly
Unknown
Mean anomaly
295.3836°
Eccentric anomaly
Unknown
Mean motion
3.77603 °/min
Orbital period
95.34 mins
BSTAR
0.000090303
Loading maneuver chart data...
Loading SW <> Apogee altitude chart data...
Loading historical data...
Loading historical data...
Loading historical data...
Loading historical data...
Loading historical data...
Loading historical data...
Loading historical data...
Other satellites on launch #28 in the year 2020 (2020-05-12 UTC)

XINGYUN-2 02 Visibility forecast

Observer location: undefined°, undefined°

Span
Click to sort rows by Start time (UTC) header in descending order
Start Az.
Max El. time (UTC)
Max El. Az.
Max El.
End time (UTC)
End Az.
6 mins2025-06-25 00:02:22.974Z136.296° SSE2025-06-25 00:05:22.974Z77.861° E29.746°2025-06-25 00:08:22.974Z10.709° NNE
5 mins2025-06-25 13:13:22.974Z28.586° NE2025-06-25 13:15:22.974Z116.265° SE41.323°2025-06-25 13:18:22.974Z180.553° SSW
|